Content
SEND FEEDBACK

Daily
Averages
Monthly
Summary
Turkmenistan

ASHGABAT, TURKMENISTAN


Home > Asia > Turkmenistan
Elevation: 775 feet     Latitude: 37 58N     Longitude: 058 20E

WEATHER
 
SELECT A DAY
Number of Records: 183,354;   Date Range: 3/15/97 - 12/16/14
 
SHARE

PRINT THIS DATA

[ ← Previous Day ]
WEATHER ALMANAC - AUGUST 1, 2013
[ Next Day → ]
[ °C ]   °F
Weather ElementAverageHighLow
Temperature90.3 °F100.4 °F (5:00 pm)80.6 °F (6:00 am)
Dewpoint50.4 °F61 °F (2:00 am)46.4 °F (1:00 pm)
Humidity24.2 %39 % (2:00 am)13 % (2:00 pm)
Barometer29.71 in29.80 in (9:00 am)29.64 in (5:00 pm)
Wind Speed9.2 mph20.1 mph (12:00 pm)
Weather ElementAverage
Visibility6.1 mi
Wind DirectionE (92.6 °)

Weather ElementTotal
Precipitation---
Cooling Degree Days25.5 (Base 65)
Growing Degree Days40.5 (Base 50)
Averaged from 31 records on August 1, 2013
WEATHER CONDITIONS BREAKOUT
WIND DIRECTION BREAKOUT
WEATHER BY HOUR - AUGUST 1, 2013
[ °C ]   °F
Local TimeTemperatureDewpointHumidityBarometerVisibilityWind DirectionWind SpeedGust SpeedPrecipitationEventsConditions
1:00 AM86.0 °F55.4 °F35 %29.68 in6.2 miCalmPartly Cloudy
2:00 AM82.0 °F61.0 °F39 %29.67 in6.0 miESE (110°)6.7 mphScattered Clouds
2:00 AM82.4 °F55.4 °F39 %29.68 in6.2 miESE (110°)6.7 mphMostly Cloudy
3:00 AM84.2 °F50.0 °F30 %29.71 in6.2 miENE (70°)6.7 mphMostly Cloudy
4:00 AM84.2 °F48.2 °F29 %29.71 in6.2 miEast (80°)4.5 mphMostly Cloudy
5:00 AM83.0 °F52.0 °F24 %29.71 in6.0 miNE (50°)6.7 mphOvercast
5:00 AM84.2 °F48.2 °F29 %29.74 in6.2 miNE (50°)6.7 mphOvercast
6:00 AM80.6 °F50.0 °F34 %29.74 in6.2 miSSE (160°)6.7 mphOvercast
7:00 AM82.4 °F50.0 °F32 %29.77 in6.2 miVariable2.2 mphMostly Cloudy
8:00 AM83.0 °F55.0 °F28 %29.75 in6.0 miEast (80°)6.7 mphPartly Cloudy
8:00 AM82.4 °F51.8 °F35 %29.77 in6.2 miEast (90°)6.7 mphMostly Cloudy
9:00 AM87.8 °F50.0 °F27 %29.80 in6.2 miEast (100°)8.9 mphMostly Cloudy
10:00 AM91.4 °F48.2 °F23 %29.77 in6.2 miEast (100°)13.4 mphMostly Cloudy
11:00 AM92.0 °F50.0 °F15 %29.73 in6.0 miEast (100°)17.9 mphScattered Clouds
11:00 AM91.4 °F48.2 °F23 %29.74 in6.2 miEast (100°)17.9 mphMostly Cloudy
12:00 PM93.2 °F48.2 °F21 %29.71 in6.2 miEast (100°)20.1 mphMostly Cloudy
1:00 PM95.0 °F46.4 °F19 %29.71 in6.2 miEast (90°)17.9 mphMostly Cloudy
2:00 PM96.0 °F51.0 °F13 %29.68 in6.0 miENE (70°)13.4 mphMostly Cloudy
2:00 PM98.6 °F46.4 °F17 %29.71 in6.2 miEast (80°)13.4 mphMostly Cloudy
3:00 PM98.6 °F46.4 °F17 %29.71 in6.2 miENE (70°)13.4 mphMostly Cloudy
4:00 PM98.6 °F46.4 °F17 %29.68 in6.2 miENE (70°)11.2 mphScattered Clouds
5:00 PM98.0 °F53.0 °F13 %29.64 in6.0 miSE (130°)11.2 mphScattered Clouds
5:00 PM100.4 °F46.4 °F16 %29.68 in6.2 miESE (120°)11.2 mphScattered Clouds
6:00 PM98.6 °F46.4 °F17 %29.68 in6.2 miSE (130°)11.2 mphScattered Clouds
7:00 PM98.6 °F46.4 °F17 %29.65 in6.2 miSE (130°)8.9 mphScattered Clouds
8:00 PM94.0 °F55.0 °F18 %29.64 in6.0 miSE (140°)6.7 mphScattered Clouds
8:00 PM95.0 °F48.2 °F20 %29.68 in6.2 miSE (140°)6.7 mphScattered Clouds
9:00 PM93.2 °F50.0 °F23 %29.68 in6.2 miENE (60°)6.7 mphScattered Clouds
10:00 PM91.4 °F50.0 °F24 %29.71 in6.2 miNE (50°)4.5 mphPartly Cloudy
11:00 PM86.0 °F57.0 °F27 %29.68 in6.0 miSE (140°)4.5 mph
11:00 PM87.8 °F51.8 °F29 %29.71 in6.2 miSSE (150°)4.5 mphClear
Hourly data recorded from UTAA, located miles away from Ashgabat, Turkmenistan







STORIES FROM OUR PARTNERS